Time,TemperatureF,DewpointF,PressureIn,WindDirection,WindDirectionDegrees,WindSpeedMPH,WindSpeedGustMPH,Humidity,HourlyPrecipIn,Conditions,Clouds,dailyrainin,SoftwareType,DateUTC
2013-12-12 00:01:00,19.1,15.6,30.31,WSW,254,0.0,1.0,86,0.00,,---,0.05,VWS V14.01,2013-12-12 05:01:00,
2013-12-12 00:06:00,19.0,15.5,30.31,WSW,254,0.0,0.0,86,0.00,,---,0.00,VWS V14.01,2013-12-12 05:06:00,
2013-12-12 00:11:00,18.9,15.4,30.31,WSW,254,0.0,0.0,86,0.00,,---,0.00,VWS V14.01,2013-12-12 05:11:00,
2013-12-12 00:16:00,18.9,15.7,30.31,WSW,254,0.0,0.0,87,0.00,,---,0.00,VWS V14.01,2013-12-12 05:16:00,
2013-12-12 00:21:00,18.8,15.6,30.31,WSW,254,0.0,1.0,87,0.00,,---,0.00,VWS V14.01,2013-12-12 05:21:00,
2013-12-12 00:26:00,18.8,15.6,30.31,WSW,255,0.0,2.0,87,0.00,,---,0.00,VWS V14.01,2013-12-12 05:26:00,
2013-12-12 00:31:00,18.8,15.6,30.31,WSW,255,0.0,0.0,87,0.00,,---,0.00,VWS V14.01,2013-12-12 05:31:00,
2013-12-12 00:36:00,18.8,15.8,30.31,WSW,255,0.0,0.0,88,0.00,,---,0.00,VWS V14.01,2013-12-12 05:36:00,
2013-12-12 00:41:00,18.8,15.8,30.31,WSW,255,0.0,1.0,88,0.00,,---,0.00,VWS V14.01,2013-12-12 05:41:00,
2013-12-12 00:46:00,18.7,15.7,30.31,WSW,255,0.0,1.0,88,0.00,,---,0.00,VWS V14.01,2013-12-12 05:46:00,
2013-12-12 00:51:00,18.7,15.7,30.32,WSW,255,0.0,0.0,88,0.00,,---,0.00,VWS V14.01,2013-12-12 05:51:00,
2013-12-12 00:56:00,18.7,15.7,30.32,WSW,255,0.0,0.0,88,0.00,,---,0.00,VWS V14.01,2013-12-12 05:56:00,
2013-12-12 01:01:00,18.8,15.8,30.32,WSW,255,0.0,0.0,88,0.00,,---,0.00,VWS V14.01,2013-12-12 06:01:00,
2013-12-12 01:06:00,18.9,15.9,30.32,WSW,255,0.0,1.0,88,0.00,,---,0.00,VWS V14.01,2013-12-12 06:06:00,
2013-12-12 01:11:00,19.1,16.1,30.32,WNW,302,0.0,3.0,88,0.00,,---,0.00,VWS V14.01,2013-12-12 06:11:00,
2013-12-12 01:16:00,19.3,16.3,30.33,South,172,0.0,1.0,88,0.00,,---,0.00,VWS V14.01,2013-12-12 06:16:00,
2013-12-12 01:21:00,19.5,16.8,30.33,NNW,337,0.0,3.0,89,0.00,,---,0.00,VWS V14.01,2013-12-12 06:21:00,
2013-12-12 01:26:00,19.9,17.2,30.33,SW,227,0.0,2.0,89,0.00,,---,0.00,VWS V14.01,2013-12-12 06:26:00,
2013-12-12 01:31:00,20.3,17.6,30.33,WSW,240,0.0,4.0,89,0.00,,---,0.00,VWS V14.01,2013-12-12 06:31:00,
2013-12-12 01:36:00,20.6,17.9,30.34,West,262,2.0,4.0,89,0.00,,---,0.00,VWS V14.01,2013-12-12 06:36:00,
2013-12-12 01:41:00,21.1,18.4,30.34,West,266,1.0,5.0,89,0.00,,---,0.00,VWS V14.01,2013-12-12 06:41:00,
2013-12-12 01:46:00,21.5,18.8,30.34,West,271,1.0,5.0,89,0.00,,---,0.00,VWS V14.01,2013-12-12 06:46:00,
2013-12-12 01:51:00,21.9,19.2,30.34,SW,223,0.0,4.0,89,0.00,,---,0.00,VWS V14.01,2013-12-12 06:51:00,
2013-12-12 01:56:00,22.2,19.5,30.34,NNW,336,0.0,4.0,89,0.00,,---,0.00,VWS V14.01,2013-12-12 06:56:00,
2013-12-12 02:01:00,22.4,19.7,30.34,SW,236,0.0,3.0,89,0.00,,---,0.00,VWS V14.01,2013-12-12 07:01:00,
2013-12-12 02:06:00,22.5,19.8,30.34,SW,236,0.0,1.0,89,0.00,,---,0.00,VWS V14.01,2013-12-12 07:06:00,
2013-12-12 02:11:00,22.6,19.6,30.34,South,181,0.0,1.0,88,0.00,,---,0.00,VWS V14.01,2013-12-12 07:11:00,
2013-12-12 02:16:00,22.6,19.6,30.34,South,187,0.0,2.0,88,0.00,,---,0.00,VWS V14.01,2013-12-12 07:16:00,
2013-12-12 02:21:00,22.6,19.6,30.34,SE,128,0.0,3.0,88,0.00,,---,0.00,VWS V14.01,2013-12-12 07:21:00,
2013-12-12 02:26:00,22.6,19.6,30.35,SE,128,0.0,0.0,88,0.00,,---,0.00,VWS V14.01,2013-12-12 07:26:00,
2013-12-12 02:31:00,22.5,19.5,30.35,SSE,150,0.0,3.0,88,0.00,,---,0.00,VWS V14.01,2013-12-12 07:31:00,
2013-12-12 02:36:00,22.4,19.4,30.35,SSW,211,2.0,4.0,88,0.00,,---,0.00,VWS V14.01,2013-12-12 07:36:00,
2013-12-12 02:41:00,22.3,19.0,30.35,SSE,163,0.0,0.0,87,0.00,,---,0.00,VWS V14.01,2013-12-12 07:41:00,
2013-12-12 02:46:00,22.2,18.9,30.35,SSW,200,0.0,4.0,87,0.00,,---,0.00,VWS V14.01,2013-12-12 07:46:00,
2013-12-12 02:51:00,22.1,18.8,30.35,NW,326,0.0,1.0,87,0.00,,---,0.00,VWS V14.01,2013-12-12 07:51:00,
2013-12-12 02:56:00,22.0,18.7,30.35,SE,141,0.0,4.0,87,0.00,,---,0.00,VWS V14.01,2013-12-12 07:56:00,
2013-12-12 03:01:00,21.9,18.6,30.35,WSW,257,2.0,7.0,87,0.00,,---,0.00,VWS V14.01,2013-12-12 08:01:00,
2013-12-12 03:06:00,21.8,18.5,30.35,WNW,288,0.0,3.0,87,0.00,,---,0.00,VWS V14.01,2013-12-12 08:06:00,
2013-12-12 03:11:00,21.7,18.2,30.35,South,179,0.0,4.0,86,0.00,,---,0.00,VWS V14.01,2013-12-12 08:11:00,
2013-12-12 03:16:00,21.6,18.3,30.35,ESE,103,0.0,1.0,87,0.00,,---,0.00,VWS V14.01,2013-12-12 08:16:00,
2013-12-12 03:21:00,21.6,18.1,30.35,NNW,335,0.0,1.0,86,0.00,,---,0.00,VWS V14.01,2013-12-12 08:21:00,
2013-12-12 03:26:00,21.4,17.9,30.36,SSW,204,0.0,3.0,86,0.00,,---,0.00,VWS V14.01,2013-12-12 08:26:00,
2013-12-12 03:31:00,21.3,17.8,30.36,SSE,147,0.0,2.0,86,0.00,,---,0.00,VWS V14.01,2013-12-12 08:31:00,
2013-12-12 03:36:00,21.2,17.7,30.36,NNW,345,0.0,3.0,86,0.00,,---,0.00,VWS V14.01,2013-12-12 08:36:00,
2013-12-12 03:41:00,21.1,17.6,30.36,SE,141,0.0,3.0,86,0.00,,---,0.00,VWS V14.01,2013-12-12 08:41:00,
2013-12-12 03:46:00,21.0,17.5,30.36,WSW,251,0.0,5.0,86,0.00,,---,0.00,VWS V14.01,2013-12-12 08:46:00,
2013-12-12 03:51:00,20.9,17.4,30.36,West,271,2.0,5.0,86,0.00,,---,0.00,VWS V14.01,2013-12-12 08:51:00,
2013-12-12 03:56:00,20.8,17.3,30.36,SW,231,1.0,3.0,86,0.00,,---,0.00,VWS V14.01,2013-12-12 08:56:00,
2013-12-12 04:01:00,20.7,17.2,30.36,ENE,74,0.0,2.0,86,0.00,,---,0.00,VWS V14.01,2013-12-12 09:01:00,
2013-12-12 04:06:00,20.7,17.5,30.36,NW,307,0.0,5.0,87,0.00,,---,0.00,VWS V14.01,2013-12-12 09:06:00,
2013-12-12 04:11:00,20.6,17.4,30.36,SW,219,1.0,7.0,87,0.00,,---,0.00,VWS V14.01,2013-12-12 09:11:00,
2013-12-12 04:16:00,20.6,17.4,30.36,South,189,0.0,1.0,87,0.00,,---,0.00,VWS V14.01,2013-12-12 09:16:00,
2013-12-12 04:21:00,20.6,17.4,30.36,South,178,0.0,2.0,87,0.00,,---,0.00,VWS V14.01,2013-12-12 09:21:00,
2013-12-12 04:26:00,20.6,17.4,30.36,South,179,0.0,0.0,87,0.00,,---,0.00,VWS V14.01,2013-12-12 09:26:00,
2013-12-12 04:31:00,20.5,17.2,30.37,North,11,0.0,1.0,87,0.00,,---,0.00,VWS V14.01,2013-12-12 09:31:00,
2013-12-12 04:36:00,20.4,17.2,30.37,South,176,4.0,5.0,87,0.00,,---,0.00,VWS V14.01,2013-12-12 09:36:00,
2013-12-12 04:41:00,20.3,16.8,30.37,South,174,0.0,1.0,86,0.00,,---,0.00,VWS V14.01,2013-12-12 09:41:00,
2013-12-12 04:46:00,20.2,16.7,30.36,South,174,0.0,0.0,86,0.00,,---,0.00,VWS V14.01,2013-12-12 09:46:00,
2013-12-12 04:51:00,20.1,16.6,30.37,WSW,250,0.0,2.0,86,0.00,,---,0.00,VWS V14.01,2013-12-12 09:51:00,
2013-12-12 04:56:00,20.0,16.5,30.37,WSW,244,0.0,1.0,86,0.00,,---,0.00,VWS V14.01,2013-12-12 09:56:00,
2013-12-12 05:01:00,19.8,16.3,30.37,WSW,244,0.0,0.0,86,0.00,,---,0.00,VWS V14.01,2013-12-12 10:01:00,
2013-12-12 05:06:00,19.7,16.2,30.37,NNW,330,0.0,0.0,86,0.00,,---,0.00,VWS V14.01,2013-12-12 10:06:00,
2013-12-12 05:11:00,19.6,16.1,30.37,NNW,330,0.0,0.0,86,0.00,,---,0.00,VWS V14.01,2013-12-12 10:11:00,
2013-12-12 05:16:00,19.5,16.0,30.37,WNW,297,0.0,1.0,86,0.00,,---,0.00,VWS V14.01,2013-12-12 10:16:00,
2013-12-12 05:21:00,19.4,18.0,30.37,WNW,297,0.0,0.0,94,0.00,,---,0.00,VWS V14.01,2013-12-12 10:21:00,
2013-12-12 05:26:00,19.3,15.8,30.38,West,277,1.0,5.0,86,0.00,,---,0.00,VWS V14.01,2013-12-12 10:26:00,
2013-12-12 05:31:00,19.1,15.6,30.38,West,277,0.0,0.0,86,0.00,,---,0.00,VWS V14.01,2013-12-12 10:31:00,
2013-12-12 05:36:00,19.1,15.6,30.38,WSW,237,0.0,11.0,86,0.00,,---,0.00,VWS V14.01,2013-12-12 10:36:00,
2013-12-12 05:41:00,19.1,15.9,30.38,NNW,345,1.0,6.0,87,0.00,,---,0.00,VWS V14.01,2013-12-12 10:41:00,
2013-12-12 05:46:00,19.1,15.9,30.38,NW,316,0.0,10.0,87,0.00,,---,0.00,VWS V14.01,2013-12-12 10:46:00,
2013-12-12 05:51:00,19.3,16.1,30.39,North,351,1.0,5.0,87,0.00,,---,0.00,VWS V14.01,2013-12-12 10:51:00,
2013-12-12 05:56:00,19.4,18.5,30.38,West,275,0.0,9.0,96,0.00,,---,0.00,VWS V14.01,2013-12-12 10:56:00,
2013-12-12 06:01:00,19.5,16.5,30.38,NNW,331,0.0,10.0,88,0.00,,---,0.00,VWS V14.01,2013-12-12 11:01:00,
2013-12-12 06:06:00,19.6,16.6,30.39,WNW,287,4.0,6.0,88,0.00,,---,0.00,VWS V14.01,2013-12-12 11:06:00,
2013-12-12 06:11:00,19.7,16.7,30.39,West,272,4.0,4.0,88,0.00,,---,0.00,VWS V14.01,2013-12-12 11:11:00,
2013-12-12 06:16:00,19.7,16.7,30.39,ENE,61,0.0,9.0,88,0.00,,---,0.00,VWS V14.01,2013-12-12 11:16:00,
2013-12-12 06:21:00,19.8,16.6,30.39,North,359,0.0,2.0,87,0.00,,---,0.00,VWS V14.01,2013-12-12 11:21:00,
2013-12-12 06:26:00,19.8,16.6,30.39,NW,310,0.0,2.0,87,0.00,,---,0.00,VWS V14.01,2013-12-12 11:26:00,
2013-12-12 06:31:00,19.7,16.5,30.39,WNW,299,0.0,2.0,87,0.00,,---,0.00,VWS V14.01,2013-12-12 11:31:00,
2013-12-12 06:36:00,19.7,16.5,30.39,NNW,328,0.0,5.0,87,0.00,,---,0.00,VWS V14.01,2013-12-12 11:36:00,
2013-12-12 06:41:00,19.5,16.3,30.40,NW,320,0.0,2.0,87,0.00,,---,0.00,VWS V14.01,2013-12-12 11:41:00,
2013-12-12 06:46:00,19.4,16.2,30.40,West,278,0.0,4.0,87,0.00,,---,0.00,VWS V14.01,2013-12-12 11:46:00,
2013-12-12 06:51:00,19.2,15.7,30.40,WNW,291,0.0,0.0,86,0.00,,---,0.00,VWS V14.01,2013-12-12 11:51:00,
2013-12-12 06:56:00,19.0,15.5,30.40,WNW,293,0.0,5.0,86,0.00,,---,0.00,VWS V14.01,2013-12-12 11:56:00,
2013-12-12 07:01:00,18.9,15.4,30.41,NW,306,0.0,0.0,86,0.00,,---,0.00,VWS V14.01,2013-12-12 12:01:00,
2013-12-12 07:06:00,18.6,15.1,30.41,NW,321,0.0,4.0,86,0.00,,---,0.00,VWS V14.01,2013-12-12 12:06:00,
2013-12-12 07:11:00,18.5,15.0,30.41,WNW,300,0.0,2.0,86,0.00,,---,0.00,VWS V14.01,2013-12-12 12:11:00,
2013-12-12 07:16:00,18.4,14.9,30.41,WSW,253,0.0,3.0,86,0.00,,---,0.00,VWS V14.01,2013-12-12 12:16:00,
2013-12-12 07:21:00,18.2,14.7,30.42,NNW,331,1.0,2.0,86,0.00,,---,0.00,VWS V14.01,2013-12-12 12:21:00,
2013-12-12 07:26:00,18.1,14.9,30.42,WNW,290,0.0,5.0,87,0.00,,---,0.00,VWS V14.01,2013-12-12 12:26:00,
2013-12-12 07:31:00,18.1,14.9,30.42,WNW,299,1.0,3.0,87,0.00,,---,0.00,VWS V14.01,2013-12-12 12:31:00,
2013-12-12 07:36:00,18.1,14.9,30.42,West,262,0.0,3.0,87,0.00,,---,0.00,VWS V14.01,2013-12-12 12:36:00,
2013-12-12 07:41:00,18.1,15.1,30.42,WSW,248,0.0,5.0,88,0.00,,---,0.00,VWS V14.01,2013-12-12 12:41:00,
2013-12-12 07:46:00,18.2,15.2,30.42,NW,316,0.0,6.0,88,0.00,,---,0.00,VWS V14.01,2013-12-12 12:46:00,
2013-12-12 07:51:00,18.4,15.4,30.42,SW,233,4.0,8.0,88,0.00,,---,0.00,VWS V14.01,2013-12-12 12:51:00,
2013-12-12 07:56:00,18.5,15.6,30.42,NW,304,0.0,4.0,88,0.00,,---,0.00,VWS V14.01,2013-12-12 12:56:00,
2013-12-12 08:01:00,18.6,15.6,30.42,West,276,1.0,6.0,88,0.00,,---,0.00,VWS V14.01,2013-12-12 13:01:00,
2013-12-12 08:06:00,18.7,15.7,30.42,NW,321,1.0,7.0,88,0.00,,---,0.00,VWS V14.01,2013-12-12 13:06:00,
2013-12-12 08:11:00,18.8,15.8,30.42,NNE,21,1.0,9.0,88,0.00,,---,0.00,VWS V14.01,2013-12-12 13:11:00,
2013-12-12 08:16:00,18.9,15.9,30.43,South,186,0.0,2.0,88,0.00,,---,0.00,VWS V14.01,2013-12-12 13:16:00,
2013-12-12 08:21:00,19.0,16.0,30.43,North,351,1.0,4.0,88,0.00,,---,0.00,VWS V14.01,2013-12-12 13:21:00,
2013-12-12 08:26:00,19.0,16.0,30.43,North,1,0.0,4.0,88,0.00,,---,0.00,VWS V14.01,2013-12-12 13:26:00,
2013-12-12 08:31:00,19.1,16.1,30.43,North,354,0.0,2.0,88,0.00,,---,0.00,VWS V14.01,2013-12-12 13:31:00,
2013-12-12 08:36:00,19.1,16.1,30.44,SW,236,0.0,0.0,88,0.00,,---,0.00,VWS V14.01,2013-12-12 13:36:00,
2013-12-12 08:41:00,19.2,16.2,30.44,NNE,26,0.0,3.0,88,0.00,,---,0.00,VWS V14.01,2013-12-12 13:41:00,
2013-12-12 08:46:00,19.2,16.2,30.44,NNW,343,0.0,3.0,88,0.00,,---,0.00,VWS V14.01,2013-12-12 13:46:00,
2013-12-12 08:51:00,19.3,16.3,30.44,WNW,302,0.0,4.0,88,0.00,,---,0.00,VWS V14.01,2013-12-12 13:51:00,
2013-12-12 08:56:00,19.3,16.3,30.44,WSW,239,0.0,2.0,88,0.00,,---,0.00,VWS V14.01,2013-12-12 13:56:00,
2013-12-12 09:01:00,19.5,16.5,30.44,West,275,1.0,5.0,88,0.00,,---,0.00,VWS V14.01,2013-12-12 14:01:00,
2013-12-12 09:06:00,19.8,16.6,30.44,NW,305,0.0,7.0,87,0.00,,---,0.00,VWS V14.01,2013-12-12 14:06:00,
2013-12-12 09:11:00,20.1,16.6,30.44,SSW,198,5.0,6.0,86,0.00,,---,0.00,VWS V14.01,2013-12-12 14:11:00,
2013-12-12 09:16:00,20.6,15.7,30.44,SSW,205,2.0,10.0,81,0.00,,---,0.00,VWS V14.01,2013-12-12 14:16:00,
2013-12-12 09:20:00,20.8,15.0,30.44,WNW,300,7.0,16.0,78,0.00,,---,0.00,VWS V14.01,2013-12-12 14:20:00,
2013-12-12 09:25:00,20.9,14.5,30.44,WNW,282,3.0,4.0,76,0.00,,---,0.00,VWS V14.01,2013-12-12 14:25:00,
2013-12-12 09:30:00,21.4,13.1,30.44,WSW,258,3.0,9.0,70,0.00,,---,0.00,VWS V14.01,2013-12-12 14:30:00,
2013-12-12 09:35:00,21.9,12.6,30.44,West,259,2.0,12.0,67,0.00,,---,0.00,VWS V14.01,2013-12-12 14:35:00,
2013-12-12 09:40:00,21.9,11.6,30.44,NNW,329,3.0,13.0,64,0.00,,---,0.00,VWS V14.01,2013-12-12 14:40:00,
2013-12-12 09:45:00,22.0,11.7,30.44,South,174,3.0,7.0,64,0.00,,---,0.00,VWS V14.01,2013-12-12 14:45:00,
2013-12-12 09:50:00,22.2,11.5,30.44,NW,321,11.0,13.0,63,0.00,,---,0.00,VWS V14.01,2013-12-12 14:50:00,
2013-12-12 09:55:00,22.2,11.5,30.44,West,275,4.0,11.0,63,0.00,,---,0.00,VWS V14.01,2013-12-12 14:55:00,
2013-12-12 10:00:00,22.1,11.4,30.44,West,269,5.0,16.0,63,0.00,,---,0.00,VWS V14.01,2013-12-12 15:00:00,
2013-12-12 10:05:00,22.4,11.7,30.43,WNW,301,1.0,7.0,63,0.00,,---,0.00,VWS V14.01,2013-12-12 15:05:00,
2013-12-12 10:10:00,22.6,11.6,30.44,WNW,298,2.0,9.0,62,0.00,,---,0.00,VWS V14.01,2013-12-12 15:10:00,
2013-12-12 10:15:00,22.9,12.2,30.43,SW,231,0.0,2.0,63,0.00,,---,0.00,VWS V14.01,2013-12-12 15:15:00,
2013-12-12 10:20:00,23.1,11.7,30.43,West,273,4.0,7.0,61,0.00,,---,0.00,VWS V14.01,2013-12-12 15:20:00,
2013-12-12 10:25:00,23.2,12.1,30.43,West,264,6.0,9.0,62,0.00,,---,0.00,VWS V14.01,2013-12-12 15:25:00,
2013-12-12 10:30:00,23.6,12.9,30.43,West,273,3.0,6.0,63,0.00,,---,0.00,VWS V14.01,2013-12-12 15:30:00,
2013-12-12 10:35:00,23.4,11.9,30.43,South,179,3.0,7.0,61,0.00,,---,0.00,VWS V14.01,2013-12-12 15:35:00,
2013-12-12 10:40:00,23.4,11.6,30.42,North,354,0.0,8.0,60,0.00,,---,0.00,VWS V14.01,2013-12-12 15:40:00,
2013-12-12 10:45:00,23.5,12.0,30.42,NNW,328,6.0,9.0,61,0.00,,---,0.00,VWS V14.01,2013-12-12 15:45:00,
2013-12-12 10:50:00,23.7,12.6,30.42,WNW,298,3.0,5.0,62,0.00,,---,0.00,VWS V14.01,2013-12-12 15:50:00,
2013-12-12 10:55:00,23.9,12.4,30.42,SSW,212,2.0,6.0,61,0.00,,---,0.00,VWS V14.01,2013-12-12 15:55:00,
2013-12-12 11:00:00,24.4,12.9,30.42,SSE,165,2.0,3.0,61,0.00,,---,0.00,VWS V14.01,2013-12-12 16:00:00,
2013-12-12 11:05:00,24.5,13.4,30.42,NNW,340,0.0,6.0,62,0.00,,---,0.00,VWS V14.01,2013-12-12 16:05:00,
2013-12-12 11:10:00,24.5,12.6,30.41,SW,236,6.0,9.0,60,0.00,,---,0.00,VWS V14.01,2013-12-12 16:10:00,
2013-12-12 11:15:00,23.7,10.7,30.41,West,278,0.0,6.0,57,0.00,,---,0.00,VWS V14.01,2013-12-12 16:15:00,
2013-12-12 11:20:00,23.5,11.3,30.40,SW,224,6.0,7.0,59,0.00,,---,0.00,VWS V14.01,2013-12-12 16:20:00,
2013-12-12 11:25:00,23.6,11.4,30.40,South,190,4.0,7.0,59,0.00,,---,0.00,VWS V14.01,2013-12-12 16:25:00,
2013-12-12 11:30:00,23.4,10.8,30.40,SSE,158,2.0,4.0,58,0.00,,---,0.00,VWS V14.01,2013-12-12 16:30:00,
2013-12-12 11:35:00,24.1,13.0,30.40,SW,224,0.0,10.0,62,0.00,,---,0.00,VWS V14.01,2013-12-12 16:35:00,
2013-12-12 11:40:00,24.1,11.1,30.39,SSE,160,2.0,4.0,57,0.00,,---,0.00,VWS V14.01,2013-12-12 16:40:00,
2013-12-12 11:45:00,24.0,11.0,30.39,East,94,2.0,6.0,57,0.00,,---,0.00,VWS V14.01,2013-12-12 16:45:00,
2013-12-12 11:50:00,23.7,10.7,30.39,NNW,334,5.0,5.0,57,0.00,,---,0.00,VWS V14.01,2013-12-12 16:50:00,
2013-12-12 11:55:00,24.3,11.7,30.38,NW,310,3.0,7.0,58,0.00,,---,0.00,VWS V14.01,2013-12-12 16:55:00,
2013-12-12 12:00:00,24.4,11.8,30.38,SW,233,0.0,6.0,58,0.00,,---,0.00,VWS V14.01,2013-12-12 17:00:00,
2013-12-12 12:05:00,24.8,12.5,30.38,East,88,3.0,4.0,59,0.00,,---,0.00,VWS V14.01,2013-12-12 17:05:00,
2013-12-12 12:10:00,24.9,13.7,30.38,West,269,7.0,8.0,62,0.00,,---,0.00,VWS V14.01,2013-12-12 17:10:00,
2013-12-12 12:15:00,24.4,11.4,30.38,SW,221,2.0,11.0,57,0.00,,---,0.00,VWS V14.01,2013-12-12 17:15:00,
2013-12-12 12:20:00,24.0,11.4,30.37,SSE,167,0.0,7.0,58,0.00,,---,0.00,VWS V14.01,2013-12-12 17:20:00,
2013-12-12 12:25:00,24.1,11.9,30.37,West,276,3.0,5.0,59,0.01,,---,0.01,VWS V14.01,2013-12-12 17:25:00,
2013-12-12 12:30:00,23.8,10.8,30.37,SSE,163,0.0,8.0,57,0.01,,---,0.01,VWS V14.01,2013-12-12 17:30:00,
2013-12-12 12:35:00,23.8,10.4,30.36,South,174,0.0,4.0,56,0.01,,---,0.01,VWS V14.01,2013-12-12 17:35:00,
2013-12-12 12:40:00,24.5,13.0,30.36,SW,232,2.0,4.0,61,0.01,,---,0.01,VWS V14.01,2013-12-12 17:40:00,
2013-12-12 12:45:00,24.3,11.3,30.37,South,181,4.0,9.0,57,0.01,,---,0.01,VWS V14.01,2013-12-12 17:45:00,
2013-12-12 12:50:00,23.7,10.3,30.37,SSW,196,9.0,13.0,56,0.01,,---,0.01,VWS V14.01,2013-12-12 17:50:00,
2013-12-12 12:55:00,23.4,10.0,30.36,SW,216,3.0,6.0,56,0.01,,---,0.01,VWS V14.01,2013-12-12 17:55:00,
2013-12-12 13:00:00,23.6,10.6,30.36,SSW,210,3.0,6.0,57,0.01,,---,0.01,VWS V14.01,2013-12-12 18:00:00,
2013-12-12 13:05:00,23.5,8.9,30.36,SSE,147,3.0,7.0,53,0.01,,---,0.01,VWS V14.01,2013-12-12 18:05:00,
2013-12-12 13:10:00,23.6,9.0,30.36,SE,141,0.0,8.0,53,0.01,,---,0.01,VWS V14.01,2013-12-12 18:10:00,
2013-12-12 13:15:00,24.1,10.3,30.36,SW,232,2.0,6.0,55,0.01,,---,0.01,VWS V14.01,2013-12-12 18:15:00,
2013-12-12 13:20:00,24.0,10.2,30.35,East,86,3.0,8.0,55,0.01,,---,0.01,VWS V14.01,2013-12-12 18:20:00,
2013-12-12 13:25:00,23.9,9.3,30.36,WSW,252,2.0,5.0,53,0.01,,---,0.01,VWS V14.01,2013-12-12 18:25:00,
2013-12-12 13:30:00,24.0,10.6,30.35,SE,128,7.0,7.0,56,0.00,,---,0.01,VWS V14.01,2013-12-12 18:30:00,
2013-12-12 13:35:00,23.5,9.3,30.35,SW,230,1.0,5.0,54,0.00,,---,0.01,VWS V14.01,2013-12-12 18:35:00,
2013-12-12 13:40:00,23.6,9.0,30.35,WSW,247,0.0,9.0,53,0.00,,---,0.01,VWS V14.01,2013-12-12 18:40:00,
2013-12-12 13:45:00,23.7,9.1,30.35,SSW,195,5.0,6.0,53,0.00,,---,0.01,VWS V14.01,2013-12-12 18:45:00,
2013-12-12 13:50:00,24.0,9.8,30.35,SW,214,0.0,6.0,54,0.00,,---,0.01,VWS V14.01,2013-12-12 18:50:00,
2013-12-12 13:55:00,24.4,10.1,30.36,SSE,160,3.0,4.0,54,0.00,,---,0.01,VWS V14.01,2013-12-12 18:55:00,
2013-12-12 14:00:00,24.4,11.0,30.36,SW,229,6.0,6.0,56,0.00,,---,0.01,VWS V14.01,2013-12-12 19:00:00,
2013-12-12 14:05:00,24.2,10.0,30.36,SW,235,3.0,5.0,54,0.00,,---,0.01,VWS V14.01,2013-12-12 19:05:00,
2013-12-12 14:10:00,24.0,10.6,30.35,SSE,164,6.0,7.0,56,0.00,,---,0.01,VWS V14.01,2013-12-12 19:10:00,
2013-12-12 14:15:00,24.3,11.7,30.35,WSW,242,3.0,6.0,58,0.00,,---,0.01,VWS V14.01,2013-12-12 19:15:00,
2013-12-12 14:20:00,24.4,12.1,30.35,SSE,165,0.0,4.0,59,0.00,,---,0.01,VWS V14.01,2013-12-12 19:20:00,
2013-12-12 14:25:00,24.3,11.7,30.35,SSE,158,5.0,5.0,58,0.00,,---,0.01,VWS V14.01,2013-12-12 19:25:00,
2013-12-12 14:30:00,24.0,11.0,30.35,South,174,0.0,6.0,57,0.00,,---,0.01,VWS V14.01,2013-12-12 19:30:00,
2013-12-12 14:35:00,24.1,12.6,30.35,SSE,160,0.0,4.0,61,0.00,,---,0.01,VWS V14.01,2013-12-12 19:35:00,
2013-12-12 14:40:00,24.1,13.0,30.35,SE,139,0.0,2.0,62,0.00,,---,0.01,VWS V14.01,2013-12-12 19:40:00,
2013-12-12 14:45:00,24.0,12.9,30.35,SSE,151,1.0,2.0,62,0.00,,---,0.01,VWS V14.01,2013-12-12 19:45:00,
2013-12-12 14:50:00,23.9,12.8,30.34,SSE,168,2.0,6.0,62,0.00,,---,0.01,VWS V14.01,2013-12-12 19:50:00,
2013-12-12 14:55:00,23.9,13.1,30.34,ESE,122,3.0,5.0,63,0.00,,---,0.01,VWS V14.01,2013-12-12 19:55:00,
2013-12-12 15:00:00,23.7,13.0,30.34,SSE,154,2.0,5.0,63,0.00,,---,0.01,VWS V14.01,2013-12-12 20:00:00,
2013-12-12 15:05:00,23.6,12.9,30.34,WSW,248,0.0,4.0,63,0.00,,---,0.01,VWS V14.01,2013-12-12 20:05:00,
2013-12-12 15:10:00,23.5,12.4,30.34,WSW,239,2.0,5.0,62,0.00,,---,0.01,VWS V14.01,2013-12-12 20:10:00,
2013-12-12 15:15:00,23.4,12.7,30.34,SW,234,0.0,5.0,63,0.00,,---,0.01,VWS V14.01,2013-12-12 20:15:00,
2013-12-12 15:20:00,23.3,12.9,30.35,SW,215,1.0,4.0,64,0.00,,---,0.01,VWS V14.01,2013-12-12 20:20:00,
2013-12-12 15:25:00,23.2,12.8,30.35,WSW,239,0.0,5.0,64,0.00,,---,0.01,VWS V14.01,2013-12-12 20:25:00,
2013-12-12 15:30:00,23.1,12.4,30.35,SE,127,0.0,4.0,63,0.00,,---,0.01,VWS V14.01,2013-12-12 20:30:00,
2013-12-12 15:35:00,23.0,12.3,30.35,SSE,153,2.0,2.0,63,0.00,,---,0.01,VWS V14.01,2013-12-12 20:35:00,
2013-12-12 15:40:00,22.9,11.8,30.35,SE,146,2.0,7.0,62,0.00,,---,0.01,VWS V14.01,2013-12-12 20:40:00,
2013-12-12 15:45:00,22.6,11.2,30.34,SSW,195,1.0,6.0,61,0.00,,---,0.01,VWS V14.01,2013-12-12 20:45:00,
2013-12-12 15:50:00,22.5,11.8,30.34,SSW,210,2.0,3.0,63,0.00,,---,0.01,VWS V14.01,2013-12-12 20:50:00,
2013-12-12 15:55:00,22.4,11.4,30.35,SSW,205,0.0,1.0,62,0.00,,---,0.01,VWS V14.01,2013-12-12 20:55:00,
2013-12-12 16:00:00,22.2,11.5,30.35,WSW,239,0.0,3.0,63,0.00,,---,0.01,VWS V14.01,2013-12-12 21:00:00,
2013-12-12 16:05:00,22.1,10.7,30.35,SSE,153,2.0,2.0,61,0.00,,---,0.01,VWS V14.01,2013-12-12 21:05:00,
2013-12-12 16:10:00,22.0,11.4,30.35,South,181,2.0,2.0,63,0.00,,---,0.01,VWS V14.01,2013-12-12 21:10:00,
2013-12-12 16:15:00,21.7,10.7,30.35,SSE,150,4.0,4.0,62,0.00,,---,0.01,VWS V14.01,2013-12-12 21:15:00,
2013-12-12 16:20:00,21.6,10.6,30.35,West,278,0.0,5.0,62,0.00,,---,0.01,VWS V14.01,2013-12-12 21:20:00,
2013-12-12 16:25:00,21.5,10.9,30.35,SSE,158,0.0,0.0,63,0.00,,---,0.01,VWS V14.01,2013-12-12 21:25:00,
2013-12-12 16:30:00,21.3,10.7,30.35,SSE,158,0.0,1.0,63,0.00,,---,0.01,VWS V14.01,2013-12-12 21:30:00,
2013-12-12 16:35:00,21.2,10.9,30.35,SE,132,0.0,3.0,64,0.00,,---,0.01,VWS V14.01,2013-12-12 21:35:00,
2013-12-12 16:40:00,20.9,10.6,30.35,South,176,0.0,3.0,64,0.00,,---,0.01,VWS V14.01,2013-12-12 21:40:00,
2013-12-12 16:45:00,20.8,10.6,30.35,South,176,0.0,2.0,64,0.00,,---,0.01,VWS V14.01,2013-12-12 21:45:00,
2013-12-12 16:50:00,20.6,10.4,30.35,South,188,0.0,0.0,64,0.00,,---,0.01,VWS V14.01,2013-12-12 21:50:00,
2013-12-12 16:55:00,20.3,10.1,30.35,South,189,0.0,0.0,64,0.00,,---,0.01,VWS V14.01,2013-12-12 21:55:00,
2013-12-12 17:00:00,20.1,10.2,30.34,South,189,0.0,0.0,65,0.00,,---,0.01,VWS V14.01,2013-12-12 22:00:00,
2013-12-12 17:05:00,19.8,9.9,30.34,South,189,0.0,0.0,65,0.00,,---,0.01,VWS V14.01,2013-12-12 22:05:00,
2013-12-12 17:10:00,19.7,9.9,30.34,South,189,0.0,0.0,65,0.00,,---,0.01,VWS V14.01,2013-12-12 22:10:00,
2013-12-12 17:15:00,19.5,10.0,30.34,South,189,0.0,0.0,66,0.00,,---,0.01,VWS V14.01,2013-12-12 22:15:00,
2013-12-12 17:20:00,19.3,9.8,30.34,South,189,0.0,0.0,66,0.00,,---,0.01,VWS V14.01,2013-12-12 22:20:00,
2013-12-12 17:25:00,19.1,9.6,30.34,South,189,0.0,0.0,66,0.00,,---,0.01,VWS V14.01,2013-12-12 22:25:00,
2013-12-12 17:30:00,18.9,9.4,30.34,South,189,0.0,0.0,66,0.00,,---,0.01,VWS V14.01,2013-12-12 22:30:00,
2013-12-12 17:35:00,18.8,9.7,30.35,South,189,0.0,0.0,67,0.00,,---,0.01,VWS V14.01,2013-12-12 22:35:00,
2013-12-12 17:40:00,18.5,9.4,30.34,South,189,0.0,0.0,67,0.00,,---,0.01,VWS V14.01,2013-12-12 22:40:00,
2013-12-12 17:45:00,18.3,9.5,30.35,South,189,0.0,0.0,68,0.00,,---,0.01,VWS V14.01,2013-12-12 22:45:00,
2013-12-12 17:50:00,18.1,9.0,30.35,South,189,0.0,0.0,67,0.00,,---,0.01,VWS V14.01,2013-12-12 22:50:00,
2013-12-12 17:55:00,17.7,8.9,30.35,South,189,0.0,0.0,68,0.00,,---,0.01,VWS V14.01,2013-12-12 22:55:00,
2013-12-12 18:00:00,17.5,9.1,30.35,South,189,0.0,1.0,69,0.00,,---,0.01,VWS V14.01,2013-12-12 23:00:00,
2013-12-12 18:05:00,17.3,9.2,30.34,South,189,0.0,1.0,70,0.00,,---,0.01,VWS V14.01,2013-12-12 23:05:00,
2013-12-12 18:10:00,17.1,8.7,30.35,South,189,0.0,2.0,69,0.00,,---,0.01,VWS V14.01,2013-12-12 23:10:00,
2013-12-12 18:15:00,16.9,8.8,30.35,South,189,0.0,2.0,70,0.00,,---,0.01,VWS V14.01,2013-12-12 23:15:00,
2013-12-12 18:20:00,16.8,9.0,30.34,South,189,0.0,0.0,71,0.00,,---,0.01,VWS V14.01,2013-12-12 23:20:00,
2013-12-12 18:25:00,16.6,8.9,30.35,South,189,0.0,3.0,71,0.00,,---,0.01,VWS V14.01,2013-12-12 23:25:00,
2013-12-12 18:30:00,16.6,9.2,30.35,South,189,0.0,1.0,72,0.00,,---,0.01,VWS V14.01,2013-12-12 23:30:00,
2013-12-12 18:35:00,16.5,8.8,30.35,South,189,0.0,2.0,71,0.00,,---,0.01,VWS V14.01,2013-12-12 23:35:00,
2013-12-12 18:40:00,16.4,9.0,30.35,South,189,0.0,0.0,72,0.00,,---,0.01,VWS V14.01,2013-12-12 23:40:00,
2013-12-12 18:45:00,16.3,8.9,30.35,South,189,0.0,0.0,72,0.00,,---,0.01,VWS V14.01,2013-12-12 23:45:00,
2013-12-12 18:50:00,16.2,9.1,30.35,South,189,0.0,2.0,73,0.00,,---,0.01,VWS V14.01,2013-12-12 23:50:00,
2013-12-12 18:55:00,16.1,9.0,30.35,South,189,0.0,1.0,73,0.00,,---,0.01,VWS V14.01,2013-12-12 23:55:00,
2013-12-12 19:00:00,15.9,8.8,30.35,South,189,0.0,0.0,73,0.00,,---,0.01,VWS V14.01,2013-12-13 00:00:00,
2013-12-12 19:05:00,15.8,8.7,30.35,South,189,0.0,0.0,73,0.00,,---,0.01,VWS V14.01,2013-12-13 00:05:00,
2013-12-12 19:10:00,15.7,8.6,30.35,South,189,0.0,0.0,73,0.00,,---,0.01,VWS V14.01,2013-12-13 00:10:00,
2013-12-12 19:15:00,15.7,8.6,30.35,South,189,0.0,1.0,73,0.00,,---,0.01,VWS V14.01,2013-12-13 00:15:00,
2013-12-12 19:19:00,15.8,9.0,30.35,South,189,0.0,1.0,74,0.00,,---,0.01,VWS V14.01,2013-12-13 00:19:00,
2013-12-12 19:24:00,15.8,9.0,30.35,South,189,0.0,0.0,74,0.00,,---,0.01,VWS V14.01,2013-12-13 00:24:00,
2013-12-12 19:29:00,15.8,9.0,30.35,South,189,0.0,0.0,74,0.00,,---,0.01,VWS V14.01,2013-12-13 00:29:00,
2013-12-12 19:34:00,15.8,9.0,30.35,South,189,0.0,0.0,74,0.00,,---,0.01,VWS V14.01,2013-12-13 00:34:00,
2013-12-12 19:39:00,15.8,9.0,30.35,South,189,0.0,0.0,74,0.00,,---,0.01,VWS V14.01,2013-12-13 00:39:00,
2013-12-12 19:44:00,15.8,9.0,30.35,South,189,0.0,1.0,74,0.00,,---,0.01,VWS V14.01,2013-12-13 00:44:00,
2013-12-12 19:49:00,15.7,8.9,30.35,South,189,1.0,2.0,74,0.00,,---,0.01,VWS V14.01,2013-12-13 00:49:00,
2013-12-12 19:54:00,15.6,9.1,30.35,SE,144,1.0,3.0,75,0.00,,---,0.01,VWS V14.01,2013-12-13 00:54:00,
2013-12-12 19:59:00,15.5,9.0,30.35,SSW,207,0.0,2.0,75,0.00,,---,0.01,VWS V14.01,2013-12-13 00:59:00,
2013-12-12 20:04:00,15.3,8.8,30.35,SSE,150,3.0,4.0,75,0.00,,---,0.01,VWS V14.01,2013-12-13 01:04:00,
2013-12-12 20:09:00,15.3,8.8,30.35,SSE,165,2.0,3.0,75,0.00,,---,0.01,VWS V14.01,2013-12-13 01:09:00,
2013-12-12 20:14:00,15.2,8.7,30.35,SSE,165,0.0,2.0,75,0.00,,---,0.01,VWS V14.01,2013-12-13 01:14:00,
2013-12-12 20:19:00,15.1,8.6,30.34,SSE,160,0.0,2.0,75,0.00,,---,0.01,VWS V14.01,2013-12-13 01:19:00,
2013-12-12 20:24:00,15.1,8.6,30.34,SSE,160,0.0,0.0,75,0.00,,---,0.01,VWS V14.01,2013-12-13 01:24:00,
2013-12-12 20:29:00,15.2,8.7,30.34,SSE,160,0.0,2.0,75,0.00,,---,0.01,VWS V14.01,2013-12-13 01:29:00,
2013-12-12 20:34:00,15.2,8.7,30.33,SSE,160,0.0,1.0,75,0.00,,---,0.01,VWS V14.01,2013-12-13 01:34:00,
2013-12-12 20:39:00,15.2,8.4,30.33,SSE,160,0.0,2.0,74,0.00,,---,0.01,VWS V14.01,2013-12-13 01:39:00,
2013-12-12 20:44:00,15.2,8.4,30.32,SSE,160,0.0,2.0,74,0.00,,---,0.01,VWS V14.01,2013-12-13 01:44:00,
2013-12-12 20:49:00,15.3,8.5,30.32,SSE,160,0.0,2.0,74,0.00,,---,0.01,VWS V14.01,2013-12-13 01:49:00,
2013-12-12 20:54:00,15.3,8.5,30.32,SSE,160,0.0,2.0,74,0.00,,---,0.01,VWS V14.01,2013-12-13 01:54:00,
2013-12-12 20:59:00,15.3,8.5,30.32,SSE,153,2.0,2.0,74,0.00,,---,0.01,VWS V14.01,2013-12-13 01:59:00,
2013-12-12 21:04:00,15.3,8.5,30.32,SSE,148,0.0,3.0,74,0.00,,---,0.01,VWS V14.01,2013-12-13 02:04:00,
2013-12-12 21:09:00,15.3,8.5,30.31,SSE,155,0.0,3.0,74,0.00,,---,0.01,VWS V14.01,2013-12-13 02:09:00,
2013-12-12 21:14:00,15.4,8.6,30.31,SE,142,0.0,2.0,74,0.00,,---,0.01,VWS V14.01,2013-12-13 02:14:00,
2013-12-12 21:19:00,15.4,8.6,30.31,SE,142,1.0,2.0,74,0.00,,---,0.01,VWS V14.01,2013-12-13 02:19:00,
2013-12-12 21:24:00,15.4,8.6,30.31,South,169,2.0,2.0,74,0.00,,---,0.01,VWS V14.01,2013-12-13 02:24:00,
2013-12-12 21:29:00,15.3,8.5,30.31,SSE,155,0.0,2.0,74,0.00,,---,0.01,VWS V14.01,2013-12-13 02:29:00,
2013-12-12 21:34:00,15.2,8.4,30.31,SSE,155,0.0,0.0,74,0.00,,---,0.01,VWS V14.01,2013-12-13 02:34:00,
2013-12-12 21:39:00,15.1,8.3,30.31,SSE,155,0.0,2.0,74,0.00,,---,0.01,VWS V14.01,2013-12-13 02:39:00,
2013-12-12 21:44:00,15.0,8.2,30.30,SSE,155,0.0,0.0,74,0.00,,---,0.01,VWS V14.01,2013-12-13 02:44:00,
2013-12-12 21:49:00,15.0,8.5,30.30,SSE,155,0.0,0.0,75,0.00,,---,0.01,VWS V14.01,2013-12-13 02:49:00,
2013-12-12 21:54:00,14.9,8.4,30.29,SSE,155,0.0,0.0,75,0.00,,---,0.01,VWS V14.01,2013-12-13 02:54:00,
2013-12-12 21:59:00,14.8,8.6,30.29,SSE,155,0.0,0.0,76,0.00,,---,0.01,VWS V14.01,2013-12-13 02:59:00,
2013-12-12 22:04:00,14.7,8.5,30.29,SSE,155,0.0,0.0,76,0.00,,---,0.01,VWS V14.01,2013-12-13 03:04:00,
2013-12-12 22:09:00,14.6,8.7,30.29,SSE,155,0.0,0.0,77,0.00,,---,0.01,VWS V14.01,2013-12-13 03:09:00,
2013-12-12 22:14:00,14.5,8.6,30.29,SSE,155,0.0,0.0,77,0.00,,---,0.01,VWS V14.01,2013-12-13 03:14:00,
2013-12-12 22:19:00,14.4,8.5,30.28,SSE,155,1.0,2.0,77,0.00,,---,0.01,VWS V14.01,2013-12-13 03:19:00,
2013-12-12 22:24:00,14.4,8.8,30.28,SSE,155,0.0,2.0,78,0.00,,---,0.01,VWS V14.01,2013-12-13 03:24:00,
2013-12-12 22:29:00,14.3,8.7,30.28,SSE,155,1.0,3.0,78,0.00,,---,0.01,VWS V14.01,2013-12-13 03:29:00,
2013-12-12 22:34:00,14.2,8.9,30.28,SSE,150,1.0,4.0,79,0.00,,---,0.01,VWS V14.01,2013-12-13 03:34:00,
2013-12-12 22:39:00,14.2,8.9,30.28,SE,138,2.0,3.0,79,0.00,,---,0.01,VWS V14.01,2013-12-13 03:39:00,
2013-12-12 22:44:00,14.1,8.8,30.27,SSE,148,0.0,2.0,79,0.00,,---,0.01,VWS V14.01,2013-12-13 03:44:00,
2013-12-12 22:49:00,14.0,8.7,30.27,SSE,148,0.0,2.0,79,0.00,,---,0.01,VWS V14.01,2013-12-13 03:49:00,
2013-12-12 22:54:00,14.0,8.1,30.27,SSE,148,2.0,3.0,77,0.00,,---,0.01,VWS V14.01,2013-12-13 03:54:00,
2013-12-12 22:59:00,14.0,8.1,30.27,SSE,148,0.0,0.0,77,0.00,,---,0.01,VWS V14.01,2013-12-13 03:59:00,
2013-12-12 23:04:00,13.9,8.0,30.27,SSE,148,0.0,2.0,77,0.00,,---,0.01,VWS V14.01,2013-12-13 04:04:00,
2013-12-12 23:09:00,14.0,8.1,30.27,SSE,148,0.0,0.0,77,0.00,,---,0.01,VWS V14.01,2013-12-13 04:09:00,
2013-12-12 23:14:00,13.9,8.0,30.27,SSE,148,0.0,0.0,77,0.00,,---,0.01,VWS V14.01,2013-12-13 04:14:00,
2013-12-12 23:19:00,13.9,8.0,30.27,SSE,148,0.0,0.0,77,0.00,,---,0.01,VWS V14.01,2013-12-13 04:19:00,
2013-12-12 23:24:00,13.8,7.9,30.27,SSE,148,0.0,0.0,77,0.00,,---,0.01,VWS V14.01,2013-12-13 04:24:00,
2013-12-12 23:29:00,13.6,7.7,30.27,SSE,148,0.0,0.0,77,0.00,,---,0.01,VWS V14.01,2013-12-13 04:29:00,
2013-12-12 23:34:00,13.5,7.4,30.27,SSE,148,0.0,0.0,76,0.00,,---,0.01,VWS V14.01,2013-12-13 04:34:00,
2013-12-12 23:39:00,13.3,7.2,30.26,SSE,148,0.0,0.0,76,0.00,,---,0.01,VWS V14.01,2013-12-13 04:39:00,
2013-12-12 23:44:00,13.1,7.3,30.26,SSE,148,1.0,1.0,77,0.00,,---,0.01,VWS V14.01,2013-12-13 04:44:00,
2013-12-12 23:49:00,13.0,7.2,30.26,SSE,148,0.0,0.0,77,0.00,,---,0.01,VWS V14.01,2013-12-13 04:49:00,
2013-12-12 23:54:00,12.8,7.0,30.26,SSE,148,1.0,2.0,77,0.00,,---,0.01,VWS V14.01,2013-12-13 04:54:00,
2013-12-12 23:59:00,12.7,7.2,30.26,SSE,148,1.0,2.0,78,0.00,,---,0.01,VWS V14.01,2013-12-13 04:59:00,